Sidney, MT

4:21 PM MST on January 21, 2017 (GMT -0700)
Sidney-Richland

Weather History for KSDY - May, 2014

Change the Weather History Date:

Monday, May 12, 2014

  Actual Average Record
Temperature  
Mean Temperature 44 °F -  
Max Temperature 57 °F 68 °F 93 °F (1960)
Min Temperature 32 °F 38 °F 23 °F (1914)
Degree Days  
Heating Degree Days 20    
Moisture  
Dew Point 26 °F    
Average Humidity 50    
Maximum Humidity 75    
Minimum Humidity 27    
Precipitation  
Precipitation 0.00 in - - ()
Sea Level Pressure  
Sea Level Pressure 30.29 in    
Wind  
Wind Speed 14 mph (NW)    
Max Wind Speed 21 mph    
Max Gust Speed 30 mph    
Visibility 10 miles    
Events      
Averages and records for this station are not official NWS values.
T = Trace of Precipitation, MM = Missing Value Source: NWS Daily Summary

Daily Weather History Graph

Daily Weather History Graph

Search for Another Location

Airport or City:

Trip Planner

Search our weather history database for the weather conditions in past years. The results will help you decide how hot, cold, wet, or windy it might be!

Date:

Astronomy

May. 12, 2014 Rise Set
Actual Time 5:22 AM MDT 8:24 PM MDT
Civil Twilight 4:46 AM MDT 9:00 PM MDT
Nautical Twilight 3:59 AM MDT 9:47 PM MDT
Astronomical Twilight 3:02 AM MDT 10:45 PM MDT
Moon 6:15 PM MDT (5/12) 4:14 AM MDT (5/12)
Length of Visible Light 16h 14m
Length of Day
15h 01m
Waxing Gibbous, 95% of the Moon is Illuminated
May 12
Waxing Gibbous
May 14
Full
May 21
Last Quarter
May 28
New
Jun 5
First Quarter

Hourly Weather History & Observations

Time (MDT) Temp. Windchill Dew Point Humidity Pressure Visibility Wind Dir Wind Speed Gust Speed Precip Events Conditions
12:15 AM 39.2 °F 31.2 °F 24.8 °F 56% 30.26 in 10.0 mi NNW 13.8 mph - N/A   Clear
12:35 AM 39.2 °F 32.5 °F 24.8 °F 56% 30.26 in 10.0 mi WNW 10.4 mph - N/A   Clear
12:55 AM 37.4 °F 29.8 °F 24.8 °F 60% 30.26 in 10.0 mi WNW 11.5 mph - N/A   Clear
1:15 AM 37.4 °F 29.8 °F 24.8 °F 60% 30.26 in 10.0 mi NW 11.5 mph - N/A   Clear
1:35 AM 35.6 °F 27.5 °F 24.8 °F 65% 30.26 in 10.0 mi WNW 11.5 mph - N/A   Clear
1:55 AM 35.6 °F 27.5 °F 24.8 °F 65% 30.26 in 10.0 mi NW 11.5 mph - N/A   Clear
2:15 AM 35.6 °F 27.5 °F 24.8 °F 65% 30.25 in 10.0 mi WNW 11.5 mph - N/A   Clear
2:35 AM 35.6 °F 27.5 °F 24.8 °F 65% 30.25 in 10.0 mi WNW 11.5 mph - N/A   Clear
2:55 AM 35.6 °F 28.0 °F 24.8 °F 65% 30.26 in 10.0 mi WNW 10.4 mph - N/A   Clear
3:15 AM 33.8 °F 25.8 °F 24.8 °F 70% 30.26 in 10.0 mi WNW 10.4 mph - N/A   Clear
3:35 AM 33.8 °F 25.8 °F 24.8 °F 70% 30.26 in 10.0 mi WNW 10.4 mph - N/A   Clear
3:55 AM 33.8 °F 24.8 °F 24.8 °F 70% 30.27 in 10.0 mi WNW 12.7 mph - N/A   Clear
4:15 AM 33.8 °F 26.4 °F 24.8 °F 70% 30.28 in 10.0 mi WNW 9.2 mph - N/A   Clear
4:35 AM 32.0 °F 23.6 °F 24.8 °F 75% 30.28 in 10.0 mi WNW 10.4 mph - N/A   Clear
4:55 AM 33.8 °F 24.8 °F 26.6 °F 75% 30.28 in 10.0 mi WNW 12.7 mph - N/A   Clear
5:15 AM 33.8 °F 24.8 °F 24.8 °F 70% 30.28 in 10.0 mi WNW 12.7 mph - N/A   Clear
5:35 AM 33.8 °F 24.8 °F 24.8 °F 70% 30.29 in 10.0 mi WNW 12.7 mph - N/A   Clear
5:55 AM 33.8 °F 25.3 °F 26.6 °F 75% 30.29 in 10.0 mi NW 11.5 mph - N/A   Clear
6:15 AM 33.8 °F 24.8 °F 26.6 °F 75% 30.30 in 10.0 mi NW 12.7 mph - N/A   Clear
6:35 AM 35.6 °F 27.1 °F 26.6 °F 70% 30.31 in 10.0 mi NW 12.7 mph - N/A   Clear
6:55 AM 35.6 °F 26.6 °F 26.6 °F 70% 30.31 in 10.0 mi NW 13.8 mph - N/A   Clear
7:15 AM 37.4 °F 28.9 °F 26.6 °F 65% 30.32 in 10.0 mi NW 13.8 mph - N/A   Clear
7:35 AM 37.4 °F 30.3 °F 28.4 °F 70% 30.32 in 10.0 mi NW 10.4 mph - N/A   Clear
8:15 AM 39.2 °F 32.0 °F 28.4 °F 65% 30.33 in 10.0 mi NNW 11.5 mph - N/A   Clear
8:35 AM 42.8 °F 35.4 °F 28.4 °F 57% 30.32 in 10.0 mi NNW 15.0 mph - N/A   Clear
8:55 AM 44.6 °F 37.2 °F 28.4 °F 53% 30.33 in 10.0 mi NNW 17.3 mph 21.9 mph N/A   Clear
9:15 AM 46.4 °F 39.5 °F 28.4 °F 50% 30.33 in 10.0 mi NNW 17.3 mph 23.0 mph N/A   Clear
9:35 AM 46.4 °F 39.5 °F 26.6 °F 46% 30.34 in 10.0 mi NNW 17.3 mph - N/A   Clear
9:55 AM 48.2 °F - 26.6 °F 43% 30.34 in 10.0 mi NNW 19.6 mph 25.3 mph N/A   Clear
10:15 AM 48.2 °F - 26.6 °F 43% 30.34 in 10.0 mi North 18.4 mph 27.6 mph N/A   Clear
10:35 AM 48.2 °F - 26.6 °F 43% 30.33 in 10.0 mi North 18.4 mph 27.6 mph N/A   Clear
10:55 AM 50.0 °F - 26.6 °F 40% 30.34 in 10.0 mi North 19.6 mph 26.5 mph N/A   Clear
11:15 AM 51.8 °F - 26.6 °F 38% 30.33 in 10.0 mi NNW 19.6 mph 26.5 mph N/A   Partly Cloudy
11:35 AM 51.8 °F - 26.6 °F 38% 30.33 in 10.0 mi NNW 15.0 mph 24.2 mph N/A   Scattered Clouds
11:55 AM 51.8 °F - 26.6 °F 38% 30.32 in 10.0 mi NNW 20.7 mph 28.8 mph N/A   Scattered Clouds
12:15 PM 53.6 °F - 26.6 °F 35% 30.31 in 10.0 mi North 15.0 mph 29.9 mph N/A   Scattered Clouds
12:35 PM 53.6 °F - 26.6 °F 35% 30.31 in 10.0 mi NNW 18.4 mph 26.5 mph N/A   Scattered Clouds
12:55 PM 53.6 °F - 26.6 °F 35% 30.30 in 10.0 mi NNW 18.4 mph 26.5 mph N/A   Mostly Cloudy
1:35 PM 53.6 °F - 24.8 °F 33% 30.29 in 10.0 mi NNW 18.4 mph 26.5 mph N/A   Mostly Cloudy
1:55 PM 55.4 °F - 26.6 °F 33% 30.28 in 10.0 mi NNW 16.1 mph 23.0 mph N/A   Mostly Cloudy
2:15 PM 55.4 °F - 26.6 °F 33% 30.28 in 10.0 mi NNW 19.6 mph 28.8 mph N/A   Mostly Cloudy
2:35 PM 55.4 °F - 24.8 °F 31% 30.28 in 10.0 mi NNW 20.7 mph 25.3 mph N/A   Mostly Cloudy
2:55 PM 53.6 °F - 24.8 °F 33% 30.28 in 10.0 mi North 19.6 mph 25.3 mph N/A   Overcast
3:15 PM 55.4 °F - 24.8 °F 31% 30.27 in 10.0 mi NNW 18.4 mph 25.3 mph N/A   Mostly Cloudy
3:35 PM 55.4 °F - 24.8 °F 31% 30.27 in 10.0 mi NNW 20.7 mph 27.6 mph N/A   Mostly Cloudy
3:55 PM 55.4 °F - 24.8 °F 31% 30.28 in 10.0 mi NNW 20.7 mph 25.3 mph N/A   Mostly Cloudy
4:15 PM 55.4 °F - 24.8 °F 31% 30.27 in 10.0 mi NNW 18.4 mph 24.2 mph N/A   Mostly Cloudy
4:35 PM 55.4 °F - 23.0 °F 29% 30.27 in 10.0 mi NNW 19.6 mph - N/A   Mostly Cloudy
4:55 PM 55.4 °F - 23.0 °F 29% 30.27 in 10.0 mi North 19.6 mph 26.5 mph N/A   Mostly Cloudy
5:15 PM 55.4 °F - 23.0 °F 29% 30.28 in 10.0 mi NNW 18.4 mph 25.3 mph N/A   Scattered Clouds
5:35 PM 57.2 °F - 23.0 °F 27% 30.27 in 10.0 mi NNW 18.4 mph 24.2 mph N/A   Mostly Cloudy
5:55 PM 55.4 °F - 23.0 °F 29% 30.27 in 10.0 mi NNW 18.4 mph - N/A   Mostly Cloudy
6:15 PM 55.4 °F - 24.8 °F 31% 30.28 in 10.0 mi NNW 18.4 mph 25.3 mph N/A   Mostly Cloudy
6:35 PM 55.4 °F - 23.0 °F 29% 30.27 in 10.0 mi North 20.7 mph 26.5 mph N/A   Mostly Cloudy
6:55 PM 53.6 °F - 23.0 °F 30% 30.27 in 10.0 mi NNW 12.7 mph - N/A   Overcast
7:15 PM 53.6 °F - 24.8 °F 33% 30.27 in 10.0 mi NNW 13.8 mph - N/A   Mostly Cloudy
7:35 PM 53.6 °F - 24.8 °F 33% 30.27 in 10.0 mi NNW 11.5 mph - N/A   Mostly Cloudy
7:55 PM 51.8 °F - 26.6 °F 38% 30.27 in 10.0 mi NNW 10.4 mph - N/A   Scattered Clouds
8:15 PM 50.0 °F - 26.6 °F 40% 30.27 in 10.0 mi NNW 6.9 mph - N/A   Mostly Cloudy
8:35 PM 46.4 °F 42.9 °F 26.6 °F 46% 30.27 in 10.0 mi NNW 6.9 mph - N/A   Scattered Clouds
8:55 PM 46.4 °F 42.9 °F 26.6 °F 46% 30.28 in 10.0 mi NW 6.9 mph - N/A   Mostly Cloudy
9:15 PM 42.8 °F 38.6 °F 26.6 °F 53% 30.28 in 10.0 mi WNW 6.9 mph - N/A   Partly Cloudy
9:35 PM 41.0 °F 35.8 °F 26.6 °F 57% 30.28 in 10.0 mi WNW 8.1 mph - N/A   Clear
9:55 PM 42.8 °F 38.0 °F 26.6 °F 53% 30.28 in 10.0 mi WNW 8.1 mph - N/A   Clear
10:15 PM 41.0 °F 35.8 °F 26.6 °F 57% 30.28 in 10.0 mi WNW 8.1 mph - N/A   Clear
10:35 PM 39.2 °F 33.0 °F 26.6 °F 61% 30.28 in 10.0 mi WNW 9.2 mph - N/A   Clear
10:55 PM 39.2 °F 33.0 °F 26.6 °F 61% 30.28 in 10.0 mi WNW 9.2 mph - N/A   Clear
11:15 PM 39.2 °F 33.0 °F 26.6 °F 61% 30.29 in 10.0 mi NW 9.2 mph - N/A   Clear
11:35 PM 39.2 °F 33.0 °F 26.6 °F 61% 30.29 in 10.0 mi WNW 9.2 mph - N/A   Clear